Time,TemperatureF,DewpointF,PressureIn,WindDirection,WindDirectionDegrees,WindSpeedMPH,WindSpeedGustMPH,Humidity,HourlyPrecipIn,Conditions,Clouds,dailyrainin,SoftwareType,DateUTC
2015-05-24 00:21:00,61.0,50.0,30.24,NE,56,0.0,1.0,66,-99.99,,,-99.99,,2015-05-24 04:21:00,
2015-05-24 00:31:00,62.0,50.0,30.24,NE,56,0.0,1.0,65,-99.99,,,-99.99,,2015-05-24 04:31:00,
2015-05-24 00:41:00,61.0,50.0,30.24,NE,55,0.0,0.0,66,-99.99,,,-99.99,,2015-05-24 04:41:00,
2015-05-24 00:51:00,61.0,50.0,30.24,NE,55,0.0,0.0,66,-99.99,,,-99.99,,2015-05-24 04:51:00,
2015-05-24 01:01:00,60.0,50.0,30.24,NE,55,0.0,0.0,69,-99.99,,,-99.99,,2015-05-24 05:01:00,
2015-05-24 01:11:00,60.0,50.0,30.24,NE,55,0.0,0.0,69,-99.99,,,-99.99,,2015-05-24 05:11:00,
2015-05-24 01:21:00,60.0,50.0,30.24,NE,55,0.0,0.0,69,-99.99,,,-99.99,,2015-05-24 05:21:00,
2015-05-24 01:42:00,58.0,50.0,30.24,NE,55,0.0,0.0,75,-99.99,,,-99.99,,2015-05-24 05:42:00,
2015-05-24 01:51:00,58.0,50.0,30.24,NE,55,0.0,0.0,75,-99.99,,,-99.99,,2015-05-24 05:51:00,
2015-05-24 02:21:00,59.0,49.0,30.23,NE,55,0.0,1.0,69,-99.99,,,-99.99,,2015-05-24 06:21:00,
2015-05-24 02:32:00,60.0,49.0,30.23,ENE,60,0.0,1.0,67,-99.99,,,-99.99,,2015-05-24 06:32:00,
2015-05-24 02:42:00,61.0,50.0,30.23,ENE,75,0.0,3.0,67,-99.99,,,-99.99,,2015-05-24 06:42:00,
2015-05-24 02:52:00,61.0,50.0,30.23,ENE,75,0.0,3.0,67,-99.99,,,-99.99,,2015-05-24 06:52:00,
2015-05-24 03:21:00,61.0,50.0,30.23,ESE,107,0.0,2.0,68,-99.99,,,-99.99,,2015-05-24 07:21:00,
2015-05-24 03:42:00,62.0,52.0,30.23,SSE,158,0.0,3.0,70,-99.99,,,-99.99,,2015-05-24 07:42:00,
2015-05-24 03:51:00,62.0,52.0,30.23,SSE,158,0.0,3.0,70,-99.99,,,-99.99,,2015-05-24 07:51:00,
2015-05-24 04:01:00,62.0,52.0,30.23,NW,307,0.0,4.0,71,-99.99,,,-99.99,,2015-05-24 08:01:00,
2015-05-24 04:11:00,62.0,52.0,30.23,NW,307,0.0,4.0,71,-99.99,,,-99.99,,2015-05-24 08:11:00,
2015-05-24 04:21:00,62.0,52.0,30.23,East,82,0.0,3.0,71,-99.99,,,-99.99,,2015-05-24 08:21:00,
2015-05-24 04:31:00,62.0,52.0,30.23,East,82,0.0,3.0,71,-99.99,,,-99.99,,2015-05-24 08:31:00,
2015-05-24 04:42:00,62.0,53.0,30.23,ENE,70,0.0,2.0,73,-99.99,,,-99.99,,2015-05-24 08:42:00,
2015-05-24 04:51:00,61.0,52.0,30.24,NNW,330,0.0,4.0,73,-99.99,,,-99.99,,2015-05-24 08:51:00,
2015-05-24 05:11:00,61.0,53.0,30.24,ESE,113,0.0,3.0,74,-99.99,,,-99.99,,2015-05-24 09:11:00,
2015-05-24 05:21:00,60.0,52.0,30.24,SE,141,0.0,2.0,75,-99.99,,,-99.99,,2015-05-24 09:21:00,
2015-05-24 05:41:00,59.0,52.0,30.24,SE,139,0.0,1.0,77,-99.99,,,-99.99,,2015-05-24 09:41:00,
2015-05-24 05:51:00,59.0,52.0,30.24,NW,326,0.0,2.0,78,-99.99,,,-99.99,,2015-05-24 09:51:00,
2015-05-24 06:02:00,59.0,52.0,30.24,NW,326,0.0,2.0,78,-99.99,,,-99.99,,2015-05-24 10:02:00,
2015-05-24 06:11:00,58.0,52.0,30.25,NW,326,0.0,0.0,79,-99.99,,,-99.99,,2015-05-24 10:11:00,
2015-05-24 06:51:00,55.0,51.0,30.27,NW,326,0.0,0.0,86,-99.99,,,-99.99,,2015-05-24 10:51:00,
2015-05-24 07:02:00,55.0,51.0,30.27,NW,326,0.0,0.0,87,-99.99,,,-99.99,,2015-05-24 11:02:00,
2015-05-24 07:11:00,55.0,51.0,30.27,NW,326,0.0,0.0,87,-99.99,,,-99.99,,2015-05-24 11:11:00,
2015-05-24 07:22:00,55.0,52.0,30.28,NW,326,0.0,0.0,88,-99.99,,,-99.99,,2015-05-24 11:22:00,
2015-05-24 07:52:00,59.0,55.0,30.28,NW,326,0.0,1.0,86,-99.99,,,-99.99,,2015-05-24 11:52:00,
2015-05-24 08:02:00,61.0,55.0,30.29,NW,323,0.0,2.0,82,-99.99,,,-99.99,,2015-05-24 12:02:00,
2015-05-24 08:11:00,61.0,55.0,30.29,NW,323,0.0,2.0,82,-99.99,,,-99.99,,2015-05-24 12:11:00,
2015-05-24 08:22:00,62.0,55.0,30.29,NNW,328,0.0,3.0,79,-99.99,,,-99.99,,2015-05-24 12:22:00,
2015-05-24 08:32:00,62.0,55.0,30.29,NNW,328,0.0,3.0,79,-99.99,,,-99.99,,2015-05-24 12:32:00,
2015-05-24 08:42:00,63.0,56.0,30.29,NW,323,0.0,2.0,77,-99.99,,,-99.99,,2015-05-24 12:42:00,
2015-05-24 08:52:00,64.0,56.0,30.29,NW,319,1.0,4.0,76,-99.99,,,-99.99,,2015-05-24 12:52:00,
2015-05-24 09:21:00,67.0,58.0,30.30,NNW,334,2.0,4.0,73,-99.99,,,-99.99,,2015-05-24 13:21:00,
2015-05-24 09:42:00,69.0,60.0,30.29,SSE,149,0.0,4.0,72,-99.99,,,-99.99,,2015-05-24 13:42:00,
2015-05-24 10:02:00,69.0,59.0,30.29,NW,319,0.0,8.0,71,-99.99,,,-99.99,,2015-05-24 14:02:00,
2015-05-24 10:11:00,70.0,59.0,30.29,WNW,297,1.0,5.0,69,-99.99,,,-99.99,,2015-05-24 14:11:00,
2015-05-24 10:21:00,71.0,59.0,30.29,WNW,301,0.0,5.0,67,-99.99,,,-99.99,,2015-05-24 14:21:00,
2015-05-24 10:42:00,71.0,59.0,30.29,East,91,2.0,8.0,65,-99.99,,,-99.99,,2015-05-24 14:42:00,
2015-05-24 10:51:00,72.0,60.0,30.29,WSW,254,1.0,7.0,65,-99.99,,,-99.99,,2015-05-24 14:51:00,
2015-05-24 11:02:00,72.0,60.0,30.29,WSW,254,1.0,7.0,65,-99.99,,,-99.99,,2015-05-24 15:02:00,
2015-05-24 11:11:00,73.0,57.0,30.28,ESE,107,1.0,6.0,58,-99.99,,,-99.99,,2015-05-24 15:11:00,
2015-05-24 11:21:00,74.0,56.0,30.28,SSE,159,2.0,4.0,54,-99.99,,,-99.99,,2015-05-24 15:21:00,
2015-05-24 11:51:00,75.0,56.0,30.27,East,101,1.0,6.0,52,-99.99,,,-99.99,,2015-05-24 15:51:00,
2015-05-24 12:02:00,76.0,57.0,30.27,SSE,158,2.0,6.0,51,-99.99,,,-99.99,,2015-05-24 16:02:00,